[[{"header":{"parameterUnit":"m.s-1","parameterCategory":2,"la1":30.2991,"la2":30.254,"lo1":-89.0895,"lo2":-89.0444,"dy":0.0017,"dx":0.0017,"nx":28,"ny":28,"refTime":"2024-03-07T03:00:00:Z","depth":"0","parameterNumber":2,"parameterNumberName":"U-component_of_CURRENTS"},"data":[0,0,0,0,0,0,0,0,0,0,0,0,0,0,0,0,0,0,0,0,0,0,0,0,0,0,0,0,0,0,0,0,0,0,0,0,0,0,0,0,0,0,0,0,0,0,0,0,0,0,0,0,0,0,0,0,0,0,0.2389,0.2389,0,0.2408,0.2408,0.2408,0.2411,0.2411,0.2412,0.2412,0.2423,0.2423,0.2423,0,0,0,0,0,0,0,0,0,0,0,0,0,0.2337,0.2338,0.2389,0.2389,0.239,0.2408,0.2408,0.2408,0.2411,0.2411,0.2412,0.2412,0.2423,0.2423,0.2423,0,0,0,0,0,0,0,0,0,0,0,0,0,0.2356,0.2338,0.2389,0.2396,0.2397,0.2408,0.2408,0.2408,0.2411,0.2411,0.2412,0.2412,0.2422,0.2423,0.2423,0.2422,0,0,0.2424,0.2424,0,0,0,0,0,0,0,0,0.2355,0.2357,0.2394,0.2395,0.2396,0.241,0.2394,0.2413,0.2411,0.2403,0.2412,0.2412,0.2419,0.242,0.2419,0.2423,0.2423,0.2424,0.2424,0.2424,0.2424,0,0,0,0,0,0,0,0.2353,0.2356,0.2393,0.2395,0.2396,0.2392,0.2395,0.2397,0.2408,0.2403,0.2404,0.2411,0.242,0.2419,0.242,0.2423,0.2424,0.2424,0.2424,0.2425,0.248,0.2481,0,0,0,0,0,0,0.2358,0.2355,0.2393,0.2394,0.2379,0.2393,0.2396,0.2403,0.2408,0.241,0.2411,0.2411,0.2418,0.2419,0.242,0.2469,0.2424,0.2425,0.2425,0.2478,0.248,0.2481,0,0,0,0,0,0,0.2356,0.2361,0.2392,0.2377,0.2381,0.2394,0.2402,0.2403,0.241,0.2414,0.2415,0.2417,0.2419,0.242,0.2436,0.2468,0.2425,0.2425,0.2477,0.2479,0.2481,0.2536,0,0,0,0,0,0,0.2355,0.236,0.2364,0.2378,0.2383,0.2412,0.2402,0.2404,0.2415,0.2415,0.2419,0.242,0.2419,0.2435,0.2436,0.2468,0.2425,0.2475,0.2478,0.248,0.2532,0.2539,0.2545,0,0,0,0,0,0.2353,0.2359,0.2364,0.2369,0.2389,0.2413,0.2415,0.2422,0.2415,0.2426,0.2428,0.242,0.2451,0.2436,0.2437,0.2469,0.2474,0.2477,0.248,0.2529,0.2538,0.2545,0,0,0,0,0,0,0.2333,0.2361,0.2366,0.2379,0.2402,0.2415,0.2424,0.2426,0.2434,0.2433,0.243,0.2432,0.2463,0.2454,0.2438,0.2493,0.2464,0.2468,0.2502,0.251,0.2516,0.2522,0.2426,0,0,0,0,0,0.2333,0.2347,0.2374,0.2384,0.2398,0.241,0.2419,0.2426,0.2437,0.2441,0.2445,0.2453,0.2474,0.2481,0.2494,0.2515,0.2527,0.2538,0.2545,0.255,0.2556,0.2606,0.2618,0.2491,0.2491,0.2491,0,0,0.2325,0.2344,0.235,0.2381,0.2396,0.2424,0.2415,0.2436,0.2458,0.244,0.2466,0.2476,0.2485,0.2519,0.2532,0.2515,0.2595,0.2554,0.2559,0.2561,0.2611,0.2623,0.2634,0.2493,0.2492,0.2492,0,0,0.2325,0.2339,0.2356,0.2381,0.2414,0.243,0.2439,0.2462,0.2474,0.2498,0.2502,0.2528,0.2544,0.2568,0.2579,0.2626,0.263,0.2632,0.2667,0.2716,0.2727,0.2736,0.2774,0.2787,0.2632,0.2632,0.2632,0,0.2314,0.234,0.2364,0.2394,0.2414,0.2437,0.2462,0.2485,0.2508,0.2525,0.2515,0.2567,0.2572,0.2627,0.2647,0.2643,0.2666,0.2636,0.2725,0.2735,0.2744,0.278,0.2793,0.2635,0.2635,0.2635,0.2634,0,0.2335,0.2356,0.2371,0.2418,0.2446,0.2469,0.2512,0.254,0.2553,0.2573,0.2625,0.2638,0.2672,0.2683,0.2678,0.2751,0.2745,0.2731,0.2706,0.276,0.2795,0.2807,0.264,0.2639,0.2638,0.2637,0,0,0.2298,0.2369,0.2372,0.2402,0.2458,0.2485,0.2536,0.2587,0.2626,0.2653,0.27,0.2741,0.2752,0.2766,0.2774,0.2811,0.2894,0.2799,0.28,0.2837,0.3004,0.2988,0.3,0.2899,0.2902,0.2904,0.3004,0,0.2302,0.2358,0.239,0.2443,0.2477,0.2521,0.2571,0.2623,0.2663,0.2718,0.275,0.2799,0.2786,0.281,0.285,0.2888,0.293,0.2868,0.2944,0.2946,0.2926,0.3015,0.2948,0.3031,0.3016,0.3018,0.302,0,0.2305,0.2348,0.2393,0.2469,0.2488,0.2521,0.2606,0.2656,0.2741,0.2774,0.2831,0.2858,0.2932,0.2903,0.3006,0.297,0.2995,0.3013,0.3017,0.2991,0.2955,0.2973,0.3055,0.3011,0.3039,0.3038,0.3036,0,0.2272,0.2346,0.238,0.2404,0.2495,0.2523,0.2576,0.2664,0.2705,0.2815,0.2851,0.2942,0.299,0.3045,0.3089,0.306,0.3189,0.3154,0.3162,0.316,0.3112,0.3103,0.316,0.3226,0.3226,0.3226,0.3226,0,0.2258,0.2287,0.2367,0.2386,0.2432,0.2514,0.2566,0.2637,0.2729,0.279,0.2876,0.2946,0.3028,0.3103,0.313,0.32,0.3232,0.3194,0.3198,0.3129,0.312,0.3084,0.3047,0.323,0.3229,0.3228,0.3227,0,0.2206,0.2258,0.23,0.2388,0.241,0.2446,0.2529,0.2579,0.2684,0.2768,0.2805,0.296,0.3089,0.3152,0.3259,0.3256,0.3242,0.3323,0.3233,0.3225,0.3175,0.3142,0.3059,0.2956,0.3359,0.336,0.336,0,0.2182,0.22,0.2271,0.2289,0.2318,0.2378,0.2417,0.253,0.2589,0.278,0.2821,0.2983,0.3084,0.3243,0.3306,0.3373,0.3261,0.3324,0.3254,0.3191,0.3158,0.3002,0.2908,0.3216,0.3215,0.3214,0.3214,0,0.2132,0.215,0.2184,0.2219,0.225,0.2288,0.2362,0.2391,0.2551,0.2637,0.2791,0.2892,0.31,0.3185,0.3292,0.3317,0.3186,0.331,0.3276,0.3088,0.2889,0.2786,0.3123,0.3207,0.3208,0.3208,0.3209,0.3209,0.2076,0.2081,0.212,0.2141,0.2173,0.2196,0.2199,0.23,0.2377,0.2506,0.2685,0.2818,0.3043,0.3211,0.3213,0.3228,0.3149,0.3165,0.3145,0.3002,0.2856,0.3177,0.324,0.3241,0.3242,0.3242,0.3243,0,0.2009,0.2024,0.2045,0.2062,0.2056,0.2105,0.2157,0.216,0.2217,0.2405,0.2521,0.2764,0.2898,0.3051,0.3197,0.3108,0.2915,0.302,0.2799,0.2724,0.3067,0.3016,0.2995,0.2995,0.2995,0.2995,0.2995,0.2995,0.1975,0.1966,0.1976,0.1937,0.1946,0.1915,0.192,0.1948,0.2059,0.2206,0.2361,0.253,0.2869,0.3121,0.314,0.3047,0.2786,0.2664,0.2603,0.2895,0.2906,0.2917,0.2862,0.2809,0.2809,0.2153,0.2148,0.2145]},{"header":{"parameterUnit":"m.s-1","parameterCategory":2,"la1":30.2991,"la2":30.254,"lo1":-89.0895,"lo2":-89.0444,"dy":0.0017,"dx":0.0017,"nx":28,"ny":28,"refTime":"2024-03-07T03:00:00:Z","depth":"0","parameterNumber":3,"parameterNumberName":"V-component_of_CURRENTS"},"data":[0,0,0,0,0,0,0,0,0,0,0,0,0,0,0,0,0,0,0,0,0,0,0,0,0,0,0,0,0,0,0,0,0,0,0,0,0,0,0,0,0,0,0,0,0,0,0,0,0,0,0,0,0,0,0,0,0,0,-0.0019,-0.002,0,-0.0079,-0.008,-0.008,-0.0121,-0.0121,-0.0121,-0.0122,-0.0233,-0.0236,-0.0238,0,0,0,0,0,0,0,0,0,0,0,0,0,0.0019,0.0019,-0.0019,-0.002,-0.002,-0.0079,-0.008,-0.0081,-0.0121,-0.0121,-0.0122,-0.0122,-0.0232,-0.0235,-0.0238,0,0,0,0,0,0,0,0,0,0,0,0,0,-0.0015,0.0019,-0.0019,-0.0047,-0.005,-0.0079,-0.008,-0.0081,-0.0121,-0.0121,-0.0122,-0.0122,-0.0231,-0.0235,-0.0239,-0.0257,0,0,-0.0251,-0.0253,0,0,0,0,0,0,0,0,-0.0013,-0.0016,-0.0042,-0.0045,-0.0049,-0.0092,-0.0107,-0.0142,-0.0121,-0.0095,-0.0122,-0.0122,-0.019,-0.0198,-0.0208,-0.0262,-0.0267,-0.0252,-0.0254,-0.0256,-0.0257,0,0,0,0,0,0,0,-0.001,-0.0014,-0.0043,-0.0043,-0.0047,-0.0071,-0.0076,-0.0114,-0.0141,-0.0097,-0.01,-0.0106,-0.0192,-0.0204,-0.0211,-0.0269,-0.0252,-0.0255,-0.0258,-0.0259,-0.034,-0.034,0,0,0,0,0,0,0.0001,-0.0012,-0.0041,-0.0045,-0.0031,-0.0071,-0.0077,-0.0078,-0.0139,-0.0149,-0.0105,-0.0107,-0.0197,-0.0206,-0.0215,-0.0241,-0.0256,-0.026,-0.0262,-0.0341,-0.034,-0.034,0,0,0,0,0,0,0.0002,-0.0001,-0.0039,-0.003,-0.0036,-0.0071,-0.0073,-0.0079,-0.0092,-0.0145,-0.0155,-0.0111,-0.0197,-0.0209,-0.0246,-0.0246,-0.0262,-0.0265,-0.0341,-0.034,-0.034,-0.0292,0,0,0,0,0,0,0.0003,-0.0,0.0004,-0.0029,-0.0036,-0.005,-0.0073,-0.008,-0.0094,-0.0098,-0.0153,-0.0164,-0.0199,-0.0239,-0.025,-0.0252,-0.0269,-0.0341,-0.0341,-0.034,-0.0294,-0.029,-0.0287,0,0,0,0,0,0.0005,0.0014,0.0005,0.0001,-0.0029,-0.005,-0.0056,-0.0083,-0.0094,-0.0096,-0.0133,-0.0162,-0.0243,-0.0242,-0.0255,-0.0258,-0.0342,-0.0341,-0.034,-0.0296,-0.0291,-0.0287,0,0,0,0,0,0,0.0036,0.001,-0.0001,0.0,-0.0021,-0.0056,-0.0059,-0.0079,-0.0109,-0.0111,-0.0163,-0.0176,-0.0209,-0.0236,-0.0235,-0.0278,-0.0295,-0.0297,-0.0257,-0.0253,-0.0249,-0.0226,-0.0272,0,0,0,0,0,0.0045,0.0043,0.0014,0.0016,0.0009,-0.0024,-0.0035,-0.0053,-0.0084,-0.0097,-0.0136,-0.0176,-0.0215,-0.0235,-0.0272,-0.0297,-0.0317,-0.0305,-0.0301,-0.0298,-0.0287,-0.0328,-0.0328,-0.0338,-0.0338,-0.0338,0,0,0.0057,0.0044,0.0042,0.0022,0.0005,0.0002,-0.0032,-0.0042,-0.0047,-0.0106,-0.0123,-0.0168,-0.0219,-0.0247,-0.0263,-0.0271,-0.0302,-0.0297,-0.0294,-0.0284,-0.0328,-0.0327,-0.0326,-0.0337,-0.0337,-0.0337,0,0,0.0085,0.0071,0.008,0.0066,0.0045,0.0024,0.0023,-0.001,-0.0026,-0.0049,-0.0094,-0.0135,-0.0186,-0.0226,-0.0252,-0.025,-0.0283,-0.0259,-0.0223,-0.0264,-0.0264,-0.0263,-0.027,-0.0271,-0.0255,-0.0255,-0.0255,0,0.0103,0.011,0.008,0.0085,0.0082,0.0038,0.005,0.0026,-0.0015,-0.0025,-0.0045,-0.0125,-0.0176,-0.0215,-0.0216,-0.0242,-0.0256,-0.0237,-0.0259,-0.026,-0.026,-0.0267,-0.0269,-0.0253,-0.0253,-0.0253,-0.0254,0,0.0136,0.0141,0.0146,0.014,0.0131,0.0133,0.01,0.0087,0.0061,0.0033,-0.0006,-0.0075,-0.0119,-0.0148,-0.0184,-0.0214,-0.0217,-0.0252,-0.0269,-0.0256,-0.0264,-0.0267,-0.025,-0.025,-0.0251,-0.0252,0,0,0.018,0.0172,0.0175,0.0188,0.0162,0.0164,0.0154,0.0136,0.0141,0.0084,0.0083,-0.0005,-0.0041,-0.0073,-0.013,-0.0171,-0.0195,-0.0206,-0.0209,-0.0208,-0.0256,-0.0258,-0.0261,-0.0235,-0.0235,-0.0236,-0.0253,0,0.0218,0.0246,0.0228,0.0259,0.0272,0.0236,0.0238,0.0214,0.0183,0.0169,0.0089,0.0061,-0.0013,-0.0031,-0.0086,-0.0165,-0.0202,-0.0185,-0.0272,-0.0273,-0.0275,-0.0265,-0.0248,-0.0263,-0.0256,-0.0256,-0.0257,0,0.0259,0.0274,0.0311,0.0329,0.0333,0.0341,0.0344,0.0342,0.0299,0.0273,0.0221,0.0165,0.0097,0.0033,-0.0091,-0.0073,-0.0156,-0.0222,-0.0225,-0.0245,-0.0281,-0.0279,-0.0268,-0.043,-0.0261,-0.0261,-0.026,0,0.0314,0.0335,0.0371,0.0375,0.0383,0.0396,0.0399,0.0374,0.039,0.0342,0.0346,0.0249,0.0223,0.0095,-0.004,-0.0065,-0.0164,-0.0219,-0.0296,-0.0295,-0.0307,-0.0307,-0.046,-0.0307,-0.0307,-0.0307,-0.0307,0,0.0362,0.0394,0.0401,0.0423,0.0474,0.0459,0.0504,0.0486,0.0485,0.0526,0.041,0.0424,0.0236,0.0158,0.0007,-0.0133,-0.0129,-0.0278,-0.0304,-0.0287,-0.0285,-0.0447,-0.055,-0.0308,-0.0307,-0.0307,-0.0307,0,0.0414,0.0417,0.0467,0.049,0.0501,0.054,0.058,0.0617,0.0596,0.0648,0.0644,0.0567,0.0465,0.0282,0.0098,-0.0047,-0.0294,-0.0255,-0.0202,-0.0223,-0.0459,-0.0558,-0.0733,-0.0808,-0.0343,-0.0344,-0.0344,0,0.0442,0.0472,0.052,0.0558,0.0571,0.062,0.0663,0.0667,0.0719,0.075,0.0795,0.0719,0.0684,0.0415,0.0145,-0.0103,-0.0284,-0.0256,-0.0322,-0.0461,-0.0592,-0.0668,-0.0724,-0.0308,-0.0308,-0.0308,-0.0308,0,0.05,0.0517,0.0557,0.0632,0.0687,0.0753,0.0818,0.0879,0.0917,0.0963,0.1032,0.1013,0.0768,0.0534,0.0187,-0.0007,-0.0377,-0.0262,-0.0435,-0.0597,-0.0662,-0.0748,-0.0287,-0.0307,-0.0307,-0.0307,-0.0307,-0.0307,0.0546,0.0586,0.0641,0.0713,0.0783,0.0883,0.0956,0.1044,0.115,0.1255,0.123,0.1242,0.0894,0.0419,0.0136,-0.0359,-0.0387,-0.0515,-0.0624,-0.0687,-0.0771,-0.0287,-0.0327,-0.0327,-0.0328,-0.0328,-0.0328,0,0.0604,0.0648,0.072,0.0811,0.0899,0.0924,0.1063,0.1152,0.1299,0.1406,0.1462,0.1328,0.0868,0.04,-0.0263,-0.0637,-0.0792,-0.0851,-0.0972,-0.1013,-0.0602,-0.0612,-0.068,-0.068,-0.068,-0.068,-0.068,-0.068,0.0639,0.0715,0.0748,0.0891,0.0962,0.1097,0.1186,0.1327,0.1438,0.1581,0.1627,0.1625,0.1298,0.006,-0.0802,-0.1018,-0.1276,-0.134,-0.1479,-0.1217,-0.1195,-0.1173,-0.1207,-0.1399,-0.14,-0.183,-0.1835,-0.1838]}],[{"header":{"parameterUnit":"m.s-1","parameterCategory":2,"la1":30.2991,"la2":30.254,"lo1":-89.0895,"lo2":-89.0444,"dy":0.0017,"dx":0.0017,"nx":28,"ny":28,"refTime":"2024-03-07T03:00:00:Z","depth":"2","parameterNumber":2,"parameterNumberName":"U-component_of_CURRENTS"},"data":[0,0,0,0,0,0,0,0,0,0,0,0,0,0,0,0,0,0,0,0,0,0,0,0,0,0,0,0,0,0,0,0,0,0,0,0,0,0,0,0,0,0,0,0,0,0,0,0,0,0,0,0,0,0,0,0,0,0,0.2262,0.2262,0,0.2286,0.2286,0.2286,0.23,0.23,0.2301,0.2301,0.2322,0.2323,0.2323,0,0,0,0,0,0,0,0,0,0,0,0,0,0.2206,0.2206,0.2262,0.2262,0.2263,0.2286,0.2286,0.2286,0.23,0.23,0.2301,0.2301,0.2322,0.2322,0.2323,0,0,0,0,0,0,0,0,0,0,0,0,0,0.2227,0.2207,0.2262,0.2275,0.2276,0.2286,0.2286,0.2286,0.23,0.23,0.2301,0.2301,0.2322,0.2322,0.2323,0.2316,0,0,0.2324,0.2324,0,0,0,0,0,0,0,0,0.2226,0.2229,0.2272,0.2274,0.2276,0.2293,0.2274,0.2297,0.23,0.2288,0.2301,0.2302,0.2314,0.2315,0.2314,0.2317,0.2318,0.2324,0.2324,0.2325,0.2325,0,0,0,0,0,0,0,0.2224,0.2228,0.2268,0.2273,0.2275,0.2272,0.2275,0.2278,0.2296,0.2289,0.2291,0.2298,0.2314,0.2314,0.2315,0.2318,0.2324,0.2324,0.2325,0.2325,0.2381,0.2382,0,0,0,0,0,0,0.2228,0.2227,0.2268,0.2269,0.2255,0.2273,0.2277,0.2285,0.2296,0.2299,0.2297,0.2299,0.2313,0.2314,0.2316,0.2372,0.2325,0.2325,0.2325,0.238,0.2381,0.2382,0,0,0,0,0,0,0.2227,0.2231,0.2267,0.2251,0.2255,0.2274,0.2282,0.2285,0.2298,0.2303,0.2305,0.231,0.2313,0.2315,0.2336,0.237,0.2325,0.2325,0.2378,0.238,0.2382,0.2443,0,0,0,0,0,0,0.2225,0.2231,0.2239,0.2251,0.2257,0.2289,0.2282,0.2285,0.2302,0.2304,0.2314,0.2316,0.2314,0.2336,0.2337,0.237,0.2326,0.2376,0.2379,0.2381,0.2439,0.2447,0.2453,0,0,0,0,0,0.2223,0.2232,0.2239,0.2245,0.2267,0.229,0.2292,0.2304,0.2303,0.2316,0.2323,0.2316,0.2352,0.2337,0.2338,0.2372,0.2375,0.2378,0.2381,0.2436,0.2445,0.2453,0,0,0,0,0,0,0.221,0.2235,0.2243,0.226,0.2282,0.2294,0.2305,0.2311,0.2325,0.2328,0.2326,0.2329,0.2363,0.2355,0.2339,0.2395,0.2365,0.2368,0.2407,0.2415,0.2422,0.2434,0.2326,0,0,0,0,0,0.2213,0.2228,0.2252,0.2266,0.2279,0.2293,0.2304,0.2315,0.2328,0.2334,0.2343,0.2354,0.2372,0.2383,0.2394,0.2418,0.2426,0.2442,0.2449,0.2455,0.2466,0.2516,0.2529,0.2392,0.2392,0.2391,0,0,0.2209,0.2227,0.2235,0.2265,0.228,0.2304,0.2301,0.2324,0.2345,0.2334,0.2365,0.2377,0.2384,0.2419,0.2433,0.2418,0.2496,0.2459,0.2464,0.2472,0.2521,0.2534,0.2546,0.2393,0.2393,0.2393,0,0,0.2213,0.2231,0.2247,0.2269,0.2302,0.2316,0.2328,0.2352,0.2367,0.2396,0.24,0.2433,0.245,0.2472,0.2481,0.2529,0.253,0.2536,0.2582,0.2631,0.2643,0.2653,0.267,0.2681,0.254,0.254,0.254,0,0.2209,0.2234,0.2256,0.228,0.23,0.2325,0.2348,0.2369,0.2398,0.2423,0.2415,0.2475,0.2477,0.2534,0.2555,0.2547,0.2566,0.255,0.2641,0.2652,0.2661,0.2676,0.2688,0.2543,0.2543,0.2542,0.2542,0,0.2227,0.2251,0.2264,0.2304,0.233,0.2355,0.239,0.2423,0.2444,0.247,0.2532,0.2544,0.2586,0.2595,0.2589,0.2667,0.2654,0.2644,0.2622,0.2679,0.269,0.2702,0.2548,0.2547,0.2546,0.2545,0,0,0.2203,0.2264,0.2268,0.2295,0.2344,0.2369,0.2416,0.2471,0.2514,0.2553,0.261,0.2652,0.2676,0.2689,0.2697,0.2738,0.2815,0.2728,0.2729,0.2747,0.2913,0.289,0.2899,0.2831,0.2834,0.2836,0.2889,0,0.221,0.2258,0.2285,0.2334,0.2364,0.2407,0.2451,0.2508,0.2554,0.2618,0.266,0.2716,0.2707,0.2739,0.2783,0.281,0.2851,0.2801,0.2853,0.2854,0.2829,0.2914,0.2699,0.2729,0.29,0.2902,0.2903,0,0.2212,0.225,0.2293,0.2363,0.238,0.2414,0.25,0.2547,0.2642,0.2679,0.2754,0.2788,0.2865,0.2841,0.2932,0.2906,0.2922,0.2933,0.2935,0.2902,0.2853,0.2701,0.2743,0.2922,0.2921,0.2919,0.2918,0,0.2185,0.2252,0.2287,0.2309,0.2391,0.2426,0.248,0.2571,0.2614,0.2733,0.2775,0.2872,0.2917,0.2972,0.3004,0.2983,0.3089,0.3055,0.3044,0.304,0.2862,0.2839,0.3124,0.3124,0.3124,0.3124,0.3124,0,0.2174,0.2203,0.2281,0.2301,0.235,0.2425,0.2489,0.2557,0.2654,0.2717,0.2811,0.2874,0.2958,0.3023,0.3043,0.3089,0.3125,0.3077,0.3071,0.2875,0.2854,0.3021,0.3009,0.3126,0.3126,0.3125,0.3125,0,0.2127,0.2177,0.222,0.2309,0.2332,0.2375,0.2465,0.2517,0.2625,0.2709,0.2749,0.2887,0.2996,0.3055,0.3143,0.3131,0.3175,0.3175,0.293,0.2897,0.3078,0.3067,0.3176,0.3176,0.3176,0.3176,0.3176,0,0.2105,0.2124,0.2199,0.222,0.2254,0.2324,0.2364,0.2479,0.2535,0.2713,0.2747,0.2895,0.2975,0.3098,0.3133,0.3177,0.32,0.2979,0.2907,0.3109,0.3092,0.3082,0.3072,0.2677,0.2673,0.267,0.2667,0,0.2061,0.2085,0.2119,0.2159,0.2197,0.2238,0.2316,0.2343,0.2494,0.2571,0.2698,0.2785,0.2944,0.2926,0.3003,0.2992,0.296,0.2915,0.3203,0.2712,0.2647,0.2628,0.2633,0.2637,0.264,0.2643,0.2644,0.2645,0.2015,0.2022,0.2063,0.2089,0.2127,0.215,0.2157,0.2245,0.2311,0.2413,0.2567,0.2633,0.2722,0.2758,0.2706,0.2679,0.2875,0.2736,0.2742,0.2753,0.27,0.2641,0.2618,0.2621,0.2623,0.2625,0.2627,0,0.1953,0.197,0.1994,0.2018,0.2016,0.207,0.2114,0.2107,0.2145,0.2278,0.2365,0.226,0.2289,0.2365,0.2304,0.2335,0.2264,0.2224,0.2104,0.2139,0.2169,0.208,0.1836,0.1833,0.183,0.1827,0,0,0.1922,0.1914,0.1924,0.1895,0.1912,0.1889,0.1891,0.1894,0.1962,0.1968,0.2001,0.2201,0.2329,0.2051,0.2043,0.1927,0.2002,0.1853,0.2502,0.2398,0.2423,0.2498,0.2408,0,0,0,0,0]},{"header":{"parameterUnit":"m.s-1","parameterCategory":2,"la1":30.2991,"la2":30.254,"lo1":-89.0895,"lo2":-89.0444,"dy":0.0017,"dx":0.0017,"nx":28,"ny":28,"refTime":"2024-03-07T03:00:00:Z","depth":"2","parameterNumber":3,"parameterNumberName":"V-component_of_CURRENTS"},"data":[0,0,0,0,0,0,0,0,0,0,0,0,0,0,0,0,0,0,0,0,0,0,0,0,0,0,0,0,0,0,0,0,0,0,0,0,0,0,0,0,0,0,0,0,0,0,0,0,0,0,0,0,0,0,0,0,0,0,-0.0087,-0.0087,0,-0.0142,-0.0143,-0.0143,-0.0182,-0.0182,-0.0182,-0.0183,-0.0287,-0.0289,-0.0292,0,0,0,0,0,0,0,0,0,0,0,0,0,-0.0052,-0.0053,-0.0086,-0.0087,-0.0088,-0.0142,-0.0143,-0.0143,-0.0182,-0.0182,-0.0182,-0.0183,-0.0286,-0.0289,-0.0292,0,0,0,0,0,0,0,0,0,0,0,0,0,-0.0084,-0.0053,-0.0086,-0.0113,-0.0116,-0.0142,-0.0143,-0.0144,-0.0182,-0.0182,-0.0182,-0.0183,-0.0285,-0.0289,-0.0293,-0.0309,0,0,-0.0304,-0.0306,0,0,0,0,0,0,0,0,-0.0082,-0.0085,-0.0108,-0.0111,-0.0114,-0.0155,-0.0169,-0.0201,-0.0182,-0.0157,-0.0183,-0.0183,-0.0247,-0.0254,-0.0263,-0.0314,-0.0318,-0.0305,-0.0307,-0.0309,-0.031,0,0,0,0,0,0,0,-0.008,-0.0083,-0.0109,-0.0109,-0.0113,-0.0135,-0.014,-0.0175,-0.0201,-0.0159,-0.0162,-0.0167,-0.0249,-0.026,-0.0266,-0.032,-0.0305,-0.0308,-0.031,-0.0312,-0.0383,-0.0382,0,0,0,0,0,0,-0.0069,-0.0081,-0.0107,-0.0111,-0.0098,-0.0135,-0.0141,-0.0142,-0.0199,-0.0208,-0.0167,-0.0169,-0.0253,-0.0262,-0.027,-0.0288,-0.0309,-0.0312,-0.0314,-0.0383,-0.0383,-0.0382,0,0,0,0,0,0,-0.0068,-0.0071,-0.0105,-0.0097,-0.0103,-0.0135,-0.0137,-0.0143,-0.0154,-0.0204,-0.0214,-0.0172,-0.0253,-0.0265,-0.0298,-0.0293,-0.0314,-0.0317,-0.0384,-0.0383,-0.0382,-0.0327,0,0,0,0,0,0,-0.0067,-0.007,-0.0066,-0.0096,-0.0103,-0.0115,-0.0137,-0.0144,-0.0156,-0.0159,-0.0212,-0.0222,-0.0255,-0.0292,-0.0302,-0.0298,-0.032,-0.0384,-0.0383,-0.0383,-0.0329,-0.0325,-0.0321,0,0,0,0,0,-0.0065,-0.0056,-0.0065,-0.0068,-0.0096,-0.0115,-0.012,-0.0145,-0.0156,-0.0157,-0.0192,-0.022,-0.0294,-0.0295,-0.0307,-0.0304,-0.0384,-0.0384,-0.0383,-0.0331,-0.0326,-0.0321,0,0,0,0,0,0,-0.0036,-0.006,-0.007,-0.0068,-0.0088,-0.0121,-0.0122,-0.0141,-0.0169,-0.0171,-0.022,-0.0233,-0.0259,-0.0288,-0.0287,-0.0321,-0.0342,-0.0343,-0.0299,-0.0294,-0.0289,-0.027,-0.0324,0,0,0,0,0,-0.0027,-0.0028,-0.0055,-0.0052,-0.006,-0.009,-0.01,-0.0116,-0.0145,-0.0158,-0.0194,-0.0231,-0.0264,-0.0283,-0.0316,-0.0337,-0.0361,-0.0341,-0.0336,-0.0332,-0.0324,-0.0363,-0.0362,-0.0379,-0.0379,-0.0379,0,0,-0.0016,-0.0028,-0.0029,-0.0047,-0.0063,-0.0064,-0.0097,-0.0106,-0.0107,-0.0165,-0.0179,-0.0219,-0.0266,-0.0288,-0.0302,-0.0312,-0.0336,-0.0331,-0.0328,-0.0321,-0.0362,-0.0361,-0.0359,-0.0378,-0.0379,-0.0379,0,0,0.0012,-0.0002,0.0008,-0.0005,-0.0023,-0.0042,-0.0042,-0.0072,-0.0086,-0.0106,-0.0146,-0.0181,-0.0229,-0.0261,-0.0284,-0.0275,-0.0312,-0.0284,-0.0248,-0.0287,-0.0285,-0.0285,-0.0297,-0.0298,-0.0281,-0.0281,-0.0281,0,0.0029,0.0036,0.0008,0.0014,0.0012,-0.0028,-0.0015,-0.0035,-0.0072,-0.008,-0.0101,-0.017,-0.0215,-0.0242,-0.0241,-0.0265,-0.0284,-0.0265,-0.0281,-0.0281,-0.0281,-0.0294,-0.0296,-0.0278,-0.0279,-0.0279,-0.0279,0,0.006,0.0067,0.0072,0.0068,0.0062,0.0066,0.0038,0.0029,0.0006,-0.0019,-0.0051,-0.0112,-0.0151,-0.0173,-0.0208,-0.0229,-0.024,-0.0271,-0.0293,-0.0276,-0.0291,-0.0294,-0.0274,-0.0275,-0.0276,-0.0277,0,0,0.01,0.0096,0.0099,0.0113,0.0093,0.0097,0.0094,0.0082,0.0088,0.0038,0.0038,-0.0033,-0.0069,-0.0097,-0.0147,-0.0185,-0.0208,-0.0224,-0.0227,-0.0232,-0.0273,-0.0282,-0.0286,-0.0245,-0.0246,-0.0246,-0.0277,0,0.0136,0.0165,0.0151,0.0183,0.0198,0.0169,0.0176,0.0158,0.0131,0.0119,0.005,0.0026,-0.0039,-0.0055,-0.0105,-0.018,-0.0215,-0.0195,-0.0292,-0.0294,-0.0302,-0.029,-0.0268,-0.0294,-0.028,-0.028,-0.0281,0,0.0174,0.019,0.0227,0.0251,0.0256,0.0267,0.0277,0.0278,0.0241,0.0218,0.0173,0.0121,0.0062,0.0003,-0.0113,-0.0097,-0.0176,-0.0239,-0.0243,-0.0273,-0.0309,-0.0313,-0.03,-0.0286,-0.0285,-0.0285,-0.0285,0,0.0223,0.0247,0.0284,0.0289,0.0303,0.0319,0.0326,0.0307,0.0324,0.0282,0.0285,0.0199,0.0172,0.0054,-0.0077,-0.0096,-0.02,-0.0244,-0.0324,-0.0325,-0.0335,-0.0336,-0.0327,-0.0327,-0.0327,-0.0327,-0.0326,0,0.0267,0.0299,0.0311,0.0333,0.0384,0.0375,0.042,0.0408,0.041,0.0445,0.0343,0.0351,0.0181,0.0101,-0.0038,-0.0177,-0.0172,-0.0309,-0.0336,-0.0313,-0.0312,-0.0333,-0.0334,-0.0328,-0.0327,-0.0327,-0.0327,0,0.0312,0.0318,0.0367,0.0395,0.0408,0.0446,0.049,0.0525,0.0509,0.0553,0.055,0.0474,0.0369,0.02,0.0024,-0.0108,-0.0254,-0.0308,-0.0255,-0.0276,-0.0361,-0.0358,-0.0397,-0.0398,-0.0398,-0.0399,-0.0399,0,0.0336,0.0365,0.0416,0.0452,0.0467,0.0517,0.0559,0.057,0.0614,0.0638,0.0672,0.0593,0.0547,0.0286,0.0041,-0.0189,-0.0235,-0.0323,-0.0369,-0.0347,-0.037,-0.0366,-0.0362,-0.0353,-0.0353,-0.0353,-0.0353,0,0.0386,0.0403,0.0442,0.0514,0.0568,0.0632,0.0693,0.0746,0.078,0.0819,0.0865,0.0837,0.06,0.0372,0.0051,-0.0115,-0.0289,-0.033,-0.0325,-0.0339,-0.0308,-0.033,-0.0327,-0.0352,-0.0352,-0.0352,-0.0352,-0.0352,0.0424,0.046,0.0512,0.0581,0.065,0.0739,0.0801,0.0873,0.0961,0.1035,0.1014,0.0982,0.0723,0.0317,0.0028,-0.0279,-0.0274,-0.0387,-0.0386,-0.0385,-0.0376,-0.0348,-0.0396,-0.0396,-0.0396,-0.0396,-0.0397,0,0.0466,0.0507,0.0575,0.066,0.074,0.0773,0.089,0.0946,0.1054,0.1138,0.1173,0.094,0.0683,0.0378,-0.007,-0.0341,-0.0373,-0.043,-0.0407,-0.0405,-0.0404,-0.0395,-0.0421,-0.0421,-0.0422,-0.0423,0,0,0.0491,0.0555,0.0585,0.0715,0.0785,0.0901,0.0974,0.1056,0.1129,0.1189,0.1198,0.1172,0.0801,0.048,0.0104,-0.0156,-0.0221,-0.0213,-0.0165,-0.0092,-0.0087,-0.0351,-0.0332,0,0,0,0,0]}],[{"header":{"parameterUnit":"m.s-1","parameterCategory":2,"la1":30.2991,"la2":30.254,"lo1":-89.0895,"lo2":-89.0444,"dy":0.0017,"dx":0.0017,"nx":28,"ny":28,"refTime":"2024-03-07T03:00:00:Z","depth":"4","parameterNumber":2,"parameterNumberName":"U-component_of_CURRENTS"},"data":[0,0,0,0,0,0,0,0,0,0,0,0,0,0,0,0,0,0,0,0,0,0,0,0,0,0,0,0,0,0,0,0,0,0,0,0,0,0,0,0,0,0,0,0,0,0,0,0,0,0,0,0,0,0,0,0,0,0,0.1462,0.1463,0,0.1522,0.1522,0.1523,0.1577,0.1578,0.1578,0.1579,0.164,0.164,0.1641,0,0,0,0,0,0,0,0,0,0,0,0,0,0.1378,0.1379,0.1462,0.1463,0.1464,0.1522,0.1522,0.1523,0.1577,0.1578,0.1579,0.158,0.1639,0.164,0.1641,0,0,0,0,0,0,0,0,0,0,0,0,0,0.1422,0.1379,0.1462,0.1499,0.1503,0.1522,0.1522,0.1523,0.1576,0.1578,0.1579,0.158,0.1639,0.164,0.1641,0.1625,0,0,0.1645,0.1646,0,0,0,0,0,0,0,0,0.1419,0.1425,0.1492,0.1496,0.1501,0.1545,0.1515,0.1558,0.1576,0.1547,0.1579,0.1581,0.1608,0.1612,0.1618,0.1628,0.163,0.1645,0.1646,0.1647,0.1647,0,0,0,0,0,0,0,0.1416,0.1422,0.1484,0.1493,0.1499,0.1507,0.1515,0.1523,0.1568,0.1549,0.1554,0.1563,0.161,0.1617,0.162,0.1631,0.1645,0.1647,0.1647,0.1648,0.1735,0.1737,0,0,0,0,0,0,0.1412,0.1419,0.1482,0.1486,0.1464,0.1508,0.1516,0.1528,0.1568,0.1576,0.1562,0.1565,0.1614,0.1618,0.1622,0.1694,0.1647,0.1648,0.1649,0.1733,0.1735,0.1737,0,0,0,0,0,0,0.141,0.1417,0.1479,0.1455,0.1464,0.1508,0.1521,0.1528,0.1569,0.1578,0.1586,0.1599,0.1615,0.162,0.1662,0.1694,0.1649,0.165,0.1732,0.1734,0.1736,0.1781,0,0,0,0,0,0,0.1408,0.1416,0.1438,0.1455,0.1465,0.1513,0.152,0.1529,0.1572,0.1578,0.1612,0.1617,0.1616,0.166,0.1663,0.1695,0.1651,0.173,0.1733,0.1735,0.1778,0.1785,0.1791,0,0,0,0,0,0.1404,0.1424,0.1438,0.1447,0.1489,0.1514,0.1521,0.1554,0.1573,0.1595,0.1622,0.1618,0.1681,0.1662,0.1666,0.1698,0.1728,0.1732,0.1735,0.1775,0.1783,0.179,0,0,0,0,0,0,0.1401,0.1432,0.1448,0.1478,0.1506,0.1525,0.1553,0.1571,0.1609,0.1626,0.1632,0.1639,0.1689,0.1687,0.1666,0.1733,0.1706,0.171,0.1735,0.1743,0.1749,0.1752,0.1652,0,0,0,0,0,0.1408,0.1434,0.146,0.1489,0.1505,0.1535,0.1556,0.1578,0.1606,0.1626,0.1648,0.1675,0.1699,0.1718,0.1735,0.1767,0.1775,0.1793,0.1799,0.1805,0.1811,0.1844,0.1854,0.1749,0.1749,0.1748,0,0,0.1414,0.1437,0.1453,0.1491,0.1517,0.1542,0.1552,0.1593,0.1621,0.1624,0.1679,0.1699,0.1713,0.1754,0.1776,0.1761,0.1843,0.1809,0.1814,0.1817,0.1849,0.1859,0.1868,0.1751,0.175,0.175,0,0,0.1427,0.1462,0.1484,0.151,0.1555,0.1571,0.159,0.1627,0.1658,0.1702,0.1717,0.1758,0.1792,0.181,0.1821,0.1873,0.1877,0.1887,0.1922,0.1954,0.1963,0.1971,0.2008,0.2019,0.1889,0.189,0.189,0,0.1436,0.1465,0.1495,0.1521,0.1547,0.1587,0.1613,0.1644,0.1693,0.1721,0.1731,0.1802,0.1816,0.1863,0.1887,0.1888,0.191,0.1888,0.1962,0.197,0.1977,0.2013,0.2024,0.1892,0.1892,0.1892,0.1891,0,0.1453,0.1489,0.1507,0.1551,0.1582,0.1616,0.1656,0.1702,0.1743,0.1769,0.1839,0.1862,0.1907,0.192,0.1921,0.1984,0.1986,0.1965,0.1939,0.199,0.2026,0.2036,0.1896,0.1895,0.1894,0.1894,0,0,0.1437,0.1505,0.1514,0.1542,0.1603,0.1627,0.1685,0.174,0.1787,0.184,0.1896,0.1946,0.1973,0.1988,0.2001,0.2031,0.2105,0.2028,0.2029,0.206,0.2193,0.2073,0.2073,0.2102,0.2103,0.2105,0.2202,0,0.1444,0.1491,0.1525,0.1578,0.1606,0.1664,0.171,0.177,0.1826,0.1891,0.1936,0.1994,0.1994,0.203,0.2062,0.2098,0.2134,0.2082,0.2143,0.2145,0.2027,0.2081,0.2111,0.221,0.2212,0.2214,0.2215,0,0.1441,0.1477,0.1525,0.1597,0.1617,0.1659,0.1749,0.1796,0.1889,0.1938,0.2007,0.2045,0.2119,0.2101,0.2192,0.2164,0.2189,0.2205,0.2208,0.2085,0.2044,0.2146,0.2234,0.2233,0.2231,0.223,0.2229,0,0.1402,0.1474,0.1515,0.154,0.1625,0.1672,0.1727,0.1818,0.1867,0.1979,0.2034,0.2113,0.2176,0.2216,0.2269,0.2242,0.2356,0.2316,0.2232,0.2225,0.2283,0.2274,0.2374,0.2374,0.2374,0.2374,0.2373,0,0.1378,0.1415,0.1509,0.1532,0.1592,0.1662,0.1737,0.1808,0.1907,0.1972,0.2061,0.2124,0.2211,0.2282,0.2302,0.2309,0.239,0.225,0.2241,0.2302,0.2294,0.2292,0.2281,0.2377,0.2377,0.2376,0.2375,0,0.1322,0.1383,0.1435,0.1537,0.1574,0.162,0.1735,0.1783,0.1897,0.1989,0.2032,0.2161,0.2258,0.2328,0.241,0.2348,0.2365,0.2347,0.2437,0.2429,0.2204,0.2195,0.2249,0.2245,0.2242,0.224,0.2238,0,0.1293,0.1316,0.1426,0.1461,0.1514,0.1595,0.1647,0.1766,0.1817,0.1998,0.2029,0.2174,0.225,0.2268,0.2349,0.2382,0.2352,0.234,0.2238,0.2205,0.2192,0.2187,0.2182,0.2233,0.2232,0.2232,0.2231,0,0.1235,0.1287,0.1331,0.1405,0.1469,0.1524,0.1614,0.1635,0.1779,0.1903,0.1979,0.2034,0.2143,0.2196,0.2247,0.226,0.2328,0.2308,0.2313,0.2216,0.2187,0.2175,0.2174,0.2221,0.2222,0.2223,0.2224,0,0.1195,0.1211,0.1279,0.133,0.1404,0.1433,0.1488,0.1554,0.1615,0.1806,0.1837,0.1995,0.2129,0.2138,0.2185,0.2191,0.2145,0.2051,0.2068,0.208,0.1979,0.1914,0.1865,0,0,0,0,0,0.1146,0.1154,0.1198,0.1246,0.1314,0.136,0.1456,0.1513,0.1653,0.166,0.1738,0.1832,0.1908,0.1986,0.1958,0.2117,0.2155,0.2074,0.2055,0.2164,0.2176,0.2071,0,0,0,0,0,0,0.1111,0.115,0.1164,0.1164,0.1183,0.1246,0.1302,0.1398,0.1399,0.1552,0.1599,0.1723,0.182,0.1913,0.1926,0.1951,0.19,0.2173,0.2168,0.2158,0.2168,0.2178,0.2074,0,0,0,0,0]},{"header":{"parameterUnit":"m.s-1","parameterCategory":2,"la1":30.2991,"la2":30.254,"lo1":-89.0895,"lo2":-89.0444,"dy":0.0017,"dx":0.0017,"nx":28,"ny":28,"refTime":"2024-03-07T03:00:00:Z","depth":"4","parameterNumber":3,"parameterNumberName":"V-component_of_CURRENTS"},"data":[0,0,0,0,0,0,0,0,0,0,0,0,0,0,0,0,0,0,0,0,0,0,0,0,0,0,0,0,0,0,0,0,0,0,0,0,0,0,0,0,0,0,0,0,0,0,0,0,0,0,0,0,0,0,0,0,0,0,-0.0038,-0.0039,0,-0.008,-0.0081,-0.0081,-0.0113,-0.0113,-0.0113,-0.0114,-0.019,-0.0192,-0.0194,0,0,0,0,0,0,0,0,0,0,0,0,0,-0.0014,-0.0014,-0.0038,-0.0039,-0.0039,-0.008,-0.0081,-0.0081,-0.0113,-0.0113,-0.0113,-0.0114,-0.019,-0.0192,-0.0194,0,0,0,0,0,0,0,0,0,0,0,0,0,-0.0037,-0.0014,-0.0038,-0.0059,-0.0062,-0.008,-0.0081,-0.0082,-0.0113,-0.0113,-0.0113,-0.0114,-0.0189,-0.0192,-0.0194,-0.0204,0,0,-0.0203,-0.0204,0,0,0,0,0,0,0,0,-0.0036,-0.0038,-0.0056,-0.0058,-0.0061,-0.0091,-0.01,-0.0124,-0.0113,-0.0094,-0.0114,-0.0114,-0.016,-0.0165,-0.0172,-0.0208,-0.0211,-0.0203,-0.0205,-0.0206,-0.0207,0,0,0,0,0,0,0,-0.0034,-0.0037,-0.0055,-0.0056,-0.0059,-0.0076,-0.008,-0.0105,-0.0125,-0.0096,-0.0098,-0.0102,-0.0161,-0.017,-0.0174,-0.0212,-0.0203,-0.0205,-0.0207,-0.0208,-0.0254,-0.0254,0,0,0,0,0,0,-0.0026,-0.0035,-0.0054,-0.0057,-0.0048,-0.0076,-0.008,-0.0081,-0.0125,-0.0131,-0.0101,-0.0103,-0.0165,-0.0171,-0.0177,-0.0181,-0.0206,-0.0208,-0.021,-0.0255,-0.0254,-0.0254,0,0,0,0,0,0,-0.0025,-0.0027,-0.0052,-0.0047,-0.0051,-0.0076,-0.0077,-0.0082,-0.0092,-0.0128,-0.0136,-0.0107,-0.0165,-0.0174,-0.0197,-0.0184,-0.021,-0.0212,-0.0255,-0.0254,-0.0254,-0.0195,0,0,0,0,0,0,-0.0024,-0.0027,-0.0024,-0.0046,-0.0051,-0.0059,-0.0077,-0.0083,-0.0094,-0.0096,-0.0135,-0.0143,-0.0166,-0.0192,-0.0199,-0.0189,-0.0214,-0.0256,-0.0255,-0.0254,-0.0197,-0.0192,-0.0188,0,0,0,0,0,-0.0023,-0.0016,-0.0024,-0.0026,-0.0047,-0.0059,-0.0063,-0.0083,-0.0093,-0.0094,-0.012,-0.0142,-0.0192,-0.0194,-0.0203,-0.0192,-0.0256,-0.0255,-0.0254,-0.0199,-0.0193,-0.0188,0,0,0,0,0,0,-0.0004,-0.002,-0.0028,-0.0026,-0.004,-0.0064,-0.0066,-0.0081,-0.0102,-0.0104,-0.0141,-0.015,-0.0165,-0.0188,-0.0189,-0.0203,-0.0226,-0.0227,-0.0181,-0.0176,-0.0171,-0.0157,-0.0217,0,0,0,0,0,0.0003,0.0003,-0.0016,-0.0014,-0.0019,-0.0043,-0.005,-0.0063,-0.0084,-0.0093,-0.0121,-0.0147,-0.0167,-0.0179,-0.0202,-0.0212,-0.0239,-0.021,-0.0205,-0.0201,-0.0195,-0.0221,-0.0218,-0.0251,-0.0251,-0.0251,0,0,0.001,0.0002,0.0002,-0.001,-0.0022,-0.002,-0.0048,-0.0055,-0.0051,-0.0099,-0.0105,-0.0135,-0.0167,-0.0176,-0.0184,-0.0194,-0.0208,-0.02,-0.0196,-0.0192,-0.022,-0.0217,-0.0214,-0.025,-0.025,-0.025,0,0,0.003,0.002,0.0028,0.0021,0.0008,-0.0004,-0.0004,-0.0027,-0.0035,-0.0048,-0.0076,-0.0096,-0.0132,-0.0146,-0.0159,-0.0143,-0.0184,-0.0153,-0.0115,-0.0141,-0.0138,-0.0136,-0.0173,-0.0174,-0.0147,-0.0147,-0.0147,0,0.0041,0.0049,0.0028,0.0036,0.0037,0.0007,0.002,0.0009,-0.0018,-0.0022,-0.0042,-0.0085,-0.0114,-0.0118,-0.0112,-0.0131,-0.0159,-0.0132,-0.0134,-0.0133,-0.0132,-0.0169,-0.0172,-0.0144,-0.0145,-0.0145,-0.0145,0,0.0066,0.0074,0.0079,0.0081,0.0079,0.0084,0.007,0.0066,0.0048,0.0032,0.0017,-0.0023,-0.0047,-0.0058,-0.0081,-0.0084,-0.0111,-0.0127,-0.0146,-0.0125,-0.0166,-0.017,-0.014,-0.0141,-0.0142,-0.0143,0,0,0.0087,0.0095,0.0097,0.0111,0.0105,0.0109,0.0118,0.0117,0.0123,0.0092,0.0095,0.0061,0.0031,0.0015,-0.0017,-0.0037,-0.0059,-0.0075,-0.0078,-0.0107,-0.0128,-0.0132,-0.0138,-0.0078,-0.0078,-0.0078,-0.0161,0,0.0113,0.0141,0.0138,0.0169,0.0183,0.017,0.0185,0.018,0.0162,0.0155,0.0118,0.0102,0.0062,0.005,0.0024,-0.004,-0.0066,-0.0036,-0.0147,-0.0151,-0.0154,-0.014,-0.0079,-0.0164,-0.0165,-0.0166,-0.0166,0,0.0139,0.0156,0.019,0.022,0.0226,0.0241,0.0258,0.0264,0.0248,0.0233,0.0209,0.017,0.0136,0.0099,0.0007,0.0025,-0.0043,-0.0095,-0.01,-0.0125,-0.0162,-0.019,-0.0174,-0.0173,-0.0173,-0.0172,-0.0172,0,0.0164,0.0195,0.0226,0.0233,0.0259,0.0277,0.0289,0.0286,0.0301,0.0278,0.0278,0.0224,0.0199,0.0114,0.0006,0.0002,-0.0103,-0.0123,-0.0192,-0.0194,-0.0192,-0.0194,-0.0185,-0.0185,-0.0185,-0.0185,-0.0184,0,0.0191,0.0218,0.0241,0.0259,0.0305,0.0309,0.0347,0.0349,0.0356,0.0379,0.0318,0.0318,0.0201,0.0127,0.0022,-0.0096,-0.0094,-0.0182,-0.021,-0.0167,-0.0164,-0.0196,-0.0196,-0.0188,-0.0187,-0.0187,-0.0186,0,0.021,0.0224,0.0264,0.0301,0.0318,0.0347,0.0393,0.0417,0.0415,0.0443,0.0441,0.0384,0.0286,0.016,0.0017,-0.0068,-0.0185,-0.0228,-0.0176,-0.02,-0.0267,-0.0263,-0.0313,-0.0314,-0.0314,-0.0315,-0.0315,0,0.022,0.0242,0.0294,0.0323,0.0341,0.0384,0.042,0.0444,0.0471,0.0485,0.0503,0.0427,0.037,0.0171,0.0027,-0.0174,-0.0201,-0.0271,-0.0263,-0.0255,-0.0278,-0.0273,-0.0268,-0.0316,-0.0316,-0.0317,-0.0317,0,0.0241,0.0257,0.0289,0.0348,0.0392,0.0445,0.0496,0.0526,0.0557,0.0562,0.0561,0.0464,0.0352,0.0187,0.003,-0.0114,-0.023,-0.0278,-0.0278,-0.0271,-0.026,-0.028,-0.0275,-0.0319,-0.0319,-0.0318,-0.0318,0,0.0252,0.0274,0.0316,0.0368,0.0429,0.0488,0.0515,0.0557,0.059,0.0611,0.061,0.0495,0.0431,0.0218,0.0074,-0.0069,-0.0109,-0.016,-0.0167,-0.0166,-0.01,-0.0062,-0.0079,0,0,0,0,0,0.0259,0.0284,0.0333,0.0391,0.0453,0.0491,0.0561,0.0583,0.0619,0.0632,0.0628,0.053,0.0333,0.0244,0.0101,0.0037,-0.0155,-0.0138,-0.0222,-0.0331,-0.0328,-0.0276,0,0,0,0,0,0,0.0262,0.0304,0.0328,0.0401,0.0444,0.0515,0.0563,0.0591,0.0597,0.0617,0.0517,0.0484,0.0287,0.0416,0.0096,0.0052,-0.0024,-0.0227,-0.0231,-0.0332,-0.033,-0.0328,-0.0273,0,0,0,0,0]}]]